"Date","Average Accumulated Water Year PPT (in)","Average SWE (in)"
10/01/1981,1.422,0.000
10/02/1981,1.554,0.077
10/03/1981,1.554,0.029
10/04/1981,1.957,0.000
10/05/1981,2.243,0.000
10/06/1981,2.430,0.000
10/07/1981,2.435,0.000
10/08/1981,2.435,0.000
10/09/1981,2.435,0.000
10/10/1981,2.750,0.000
10/11/1981,2.752,0.000
10/12/1981,2.784,0.000
10/13/1981,3.015,0.000
10/14/1981,3.741,0.000
10/15/1981,3.745,0.000
10/16/1981,3.745,0.000
10/17/1981,4.315,0.000
10/18/1981,4.868,0.000
10/19/1981,4.905,0.025
10/20/1981,5.052,0.017
10/21/1981,5.103,0.055
10/22/1981,5.104,0.056
10/23/1981,5.225,0.131
10/24/1981,5.226,0.132
10/25/1981,5.256,0.154
10/26/1981,5.301,0.175
10/27/1981,5.301,0.169
10/28/1981,5.301,0.144
10/29/1981,5.301,0.092
10/30/1981,5.301,0.012
10/31/1981,5.301,0.000
11/01/1981,5.301,0.000
11/02/1981,5.301,0.000
11/03/1981,5.301,0.000
11/04/1981,5.301,0.000
11/05/1981,5.301,0.000
11/06/1981,5.301,0.000
11/07/1981,5.301,0.000
11/08/1981,5.301,0.000
11/09/1981,5.301,0.000
11/10/1981,5.301,0.000
11/11/1981,5.301,0.000
11/12/1981,5.301,0.000
11/13/1981,5.301,0.000
11/14/1981,5.301,0.000
11/15/1981,5.301,0.000
11/16/1981,5.303,0.000
11/17/1981,5.303,0.000
11/18/1981,5.303,0.000
11/19/1981,5.303,0.000
11/20/1981,5.385,0.069
11/21/1981,5.387,0.071
11/22/1981,5.387,0.071
11/23/1981,5.387,0.071
11/24/1981,5.417,0.096
11/25/1981,5.434,0.109
11/26/1981,5.983,0.519
11/27/1981,6.414,0.744
11/28/1981,6.414,0.744
11/29/1981,6.423,0.751
11/30/1981,6.423,0.751
12/01/1981,6.437,0.758
12/02/1981,6.600,0.834
12/03/1981,6.603,0.836
12/04/1981,6.605,0.838
12/05/1981,6.605,0.838
12/06/1981,6.606,0.838
12/07/1981,6.607,0.838
12/08/1981,6.641,0.860
12/09/1981,6.658,0.871
12/10/1981,6.658,0.871
12/11/1981,6.658,0.871
12/12/1981,6.726,0.988
12/13/1981,6.750,1.023
12/14/1981,6.832,1.133
12/15/1981,6.847,1.158
12/16/1981,6.879,1.202
12/17/1981,6.958,1.235
12/18/1981,7.005,1.255
12/19/1981,7.028,1.265
12/20/1981,7.034,1.271
12/21/1981,7.301,1.422
12/22/1981,7.301,1.422
12/23/1981,7.321,1.454
12/24/1981,7.327,1.467
12/25/1981,7.329,1.472
12/26/1981,7.417,1.600
12/27/1981,7.590,1.811
12/28/1981,7.645,1.892
12/29/1981,7.696,1.938
12/30/1981,7.713,1.950
12/31/1981,7.853,2.084
01/01/1982,7.962,2.186
01/02/1982,8.141,2.363
01/03/1982,8.313,2.523
01/04/1982,8.313,2.523
01/05/1982,8.324,2.533
01/06/1982,8.324,2.533
01/07/1982,8.326,2.537
01/08/1982,8.352,2.553
01/09/1982,8.363,2.564
01/10/1982,8.407,2.608
01/11/1982,8.628,2.804
01/12/1982,8.632,2.808
01/13/1982,8.633,2.809
01/14/1982,8.645,2.821
01/15/1982,8.673,2.845
01/16/1982,8.737,2.905
01/17/1982,8.743,2.909
01/18/1982,8.750,2.916
01/19/1982,8.821,2.966
01/20/1982,8.865,2.993
01/21/1982,8.953,3.098
01/22/1982,8.974,3.122
01/23/1982,9.804,3.870
01/24/1982,10.176,4.188
01/25/1982,10.180,4.191
01/26/1982,10.180,4.191
01/27/1982,10.180,4.191
01/28/1982,10.184,4.200
01/29/1982,10.289,4.289
01/30/1982,10.369,4.358
01/31/1982,10.377,4.363
02/01/1982,10.378,4.365
02/02/1982,10.467,4.420
02/03/1982,10.470,4.423
02/04/1982,10.471,4.425
02/05/1982,10.471,4.425
02/06/1982,10.471,4.426
02/07/1982,10.475,4.430
02/08/1982,10.478,4.433
02/09/1982,10.478,4.433
02/10/1982,10.478,4.433
02/11/1982,10.478,4.434
02/12/1982,10.478,4.434
02/13/1982,10.478,4.434
02/14/1982,10.480,4.435
02/15/1982,10.480,4.435
02/16/1982,10.480,4.435
02/17/1982,10.480,4.435
02/18/1982,10.480,4.435
02/19/1982,10.480,4.425
02/20/1982,10.480,4.425
02/21/1982,10.480,4.423
02/22/1982,10.480,4.423
02/23/1982,10.483,4.425
02/24/1982,10.537,4.461
02/25/1982,10.540,4.463
02/26/1982,10.541,4.469
02/27/1982,10.664,4.617
02/28/1982,10.664,4.619
03/01/1982,10.724,4.672
03/02/1982,10.724,4.672
03/03/1982,10.724,4.672
03/04/1982,10.724,4.672
03/05/1982,10.724,4.672
03/06/1982,10.724,4.672
03/07/1982,10.726,4.675
03/08/1982,10.772,4.720
03/09/1982,10.966,4.886
03/10/1982,10.995,4.910
03/11/1982,11.044,4.961
03/12/1982,11.047,4.970
03/13/1982,11.453,5.190
03/14/1982,11.453,5.190
03/15/1982,11.473,5.198
03/16/1982,11.474,5.135
03/17/1982,11.544,5.213
03/18/1982,11.639,5.147
03/19/1982,11.640,5.150
03/20/1982,11.875,5.401
03/21/1982,12.053,5.496
03/22/1982,12.053,5.496
03/23/1982,12.053,5.489
03/24/1982,12.060,5.309
03/25/1982,12.062,5.313
03/26/1982,12.074,5.334
03/27/1982,12.074,5.334
03/28/1982,12.074,5.334
03/29/1982,12.075,5.300
03/30/1982,12.403,5.190
03/31/1982,12.656,5.077
04/01/1982,12.656,5.077
04/02/1982,12.810,5.238
04/03/1982,13.469,5.988
04/04/1982,13.683,6.201
04/05/1982,13.702,6.207
04/06/1982,13.702,6.207
04/07/1982,13.702,6.207
04/08/1982,13.702,6.207
04/09/1982,13.703,6.208
04/10/1982,13.731,6.229
04/11/1982,13.732,6.230
04/12/1982,13.746,6.143
04/13/1982,14.186,6.014
04/14/1982,14.214,5.815
04/15/1982,14.341,4.800
04/16/1982,14.491,3.995
04/17/1982,14.641,3.939
04/18/1982,14.696,3.984
04/19/1982,15.086,4.088
04/20/1982,15.087,4.091
04/21/1982,15.087,4.091
04/22/1982,15.087,4.064
04/23/1982,15.087,3.620
04/24/1982,15.087,2.224
04/25/1982,15.087,0.907
04/26/1982,15.087,0.742
04/27/1982,15.087,0.731
04/28/1982,15.087,0.654
04/29/1982,15.087,0.547
04/30/1982,15.090,0.337
05/01/1982,15.090,0.258
05/02/1982,15.090,0.110
05/03/1982,15.095,0.016
05/04/1982,15.407,0.000
05/05/1982,16.619,0.000
05/06/1982,16.748,0.000
05/07/1982,16.859,0.000
05/08/1982,16.859,0.000
05/09/1982,16.867,0.000
05/10/1982,17.434,0.000
05/11/1982,17.704,0.000
05/12/1982,17.746,0.000
05/13/1982,18.387,0.000
05/14/1982,18.609,0.000
05/15/1982,18.642,0.000
05/16/1982,18.754,0.000
05/17/1982,19.226,0.000
05/18/1982,19.847,0.000
05/19/1982,19.921,0.000
05/20/1982,19.921,0.000
05/21/1982,19.921,0.000
05/22/1982,19.921,0.000
05/23/1982,19.921,0.000
05/24/1982,19.921,0.000
05/25/1982,19.921,0.000
05/26/1982,19.921,0.000
05/27/1982,19.921,0.000
05/28/1982,19.921,0.000
05/29/1982,19.921,0.000
05/30/1982,19.922,0.000
05/31/1982,20.096,0.000
06/01/1982,20.229,0.000
06/02/1982,20.259,0.000
06/03/1982,20.259,0.000
06/04/1982,20.259,0.000
06/05/1982,20.259,0.000
06/06/1982,20.279,0.000
06/07/1982,20.416,0.000
06/08/1982,20.416,0.000
06/09/1982,20.423,0.000
06/10/1982,21.078,0.000
06/11/1982,21.081,0.000
06/12/1982,21.122,0.000
06/13/1982,21.151,0.000
06/14/1982,21.171,0.000
06/15/1982,21.495,0.000
06/16/1982,21.498,0.000
06/17/1982,21.522,0.000
06/18/1982,21.522,0.000
06/19/1982,21.526,0.000
06/20/1982,21.652,0.000
06/21/1982,21.863,0.000
06/22/1982,21.865,0.000
06/23/1982,21.865,0.000
06/24/1982,21.872,0.000
06/25/1982,21.872,0.000
06/26/1982,21.872,0.000
06/27/1982,21.883,0.000
06/28/1982,21.883,0.000
06/29/1982,22.221,0.000
06/30/1982,22.221,0.000
07/01/1982,22.221,0.000
07/02/1982,22.263,0.000
07/03/1982,23.027,0.000
07/04/1982,23.270,0.000
07/05/1982,23.723,0.000
07/06/1982,24.617,0.000
07/07/1982,26.117,0.000
07/08/1982,26.120,0.000
07/09/1982,26.635,0.000
07/10/1982,26.969,0.000
07/11/1982,27.232,0.000
07/12/1982,27.286,0.000
07/13/1982,27.400,0.000
07/14/1982,27.508,0.000
07/15/1982,27.511,0.000
07/16/1982,28.009,0.000
07/17/1982,28.180,0.000
07/18/1982,28.184,0.000
07/19/1982,28.184,0.000
07/20/1982,28.202,0.000
07/21/1982,28.346,0.000
07/22/1982,28.346,0.000
07/23/1982,28.346,0.000
07/24/1982,28.459,0.000
07/25/1982,28.587,0.000
07/26/1982,28.609,0.000
07/27/1982,28.609,0.000
07/28/1982,28.611,0.000
07/29/1982,28.789,0.000
07/30/1982,29.038,0.000
07/31/1982,29.044,0.000
08/01/1982,29.044,0.000
08/02/1982,29.045,0.000
08/03/1982,29.097,0.000
08/04/1982,29.098,0.000
08/05/1982,29.098,0.000
08/06/1982,29.272,0.000
08/07/1982,29.446,0.000
08/08/1982,29.603,0.000
08/09/1982,29.690,0.000
08/10/1982,29.691,0.000
08/11/1982,29.696,0.000
08/12/1982,29.704,0.000
08/13/1982,29.848,0.000
08/14/1982,29.965,0.000
08/15/1982,29.965,0.000
08/16/1982,29.965,0.000
08/17/1982,29.965,0.000
08/18/1982,29.966,0.000
08/19/1982,30.114,0.000
08/20/1982,30.114,0.000
08/21/1982,30.174,0.000
08/22/1982,30.633,0.000
08/23/1982,30.826,0.000
08/24/1982,30.863,0.000
08/25/1982,30.994,0.000
08/26/1982,31.043,0.000
08/27/1982,31.088,0.000
08/28/1982,31.092,0.000
08/29/1982,31.219,0.000
08/30/1982,31.281,0.000
08/31/1982,31.284,0.000
09/01/1982,31.616,0.000
09/02/1982,31.801,0.000
09/03/1982,31.849,0.000
09/04/1982,31.849,0.000
09/05/1982,31.944,0.000
09/06/1982,31.957,0.000
09/07/1982,31.957,0.000
09/08/1982,31.957,0.000
09/09/1982,31.958,0.000
09/10/1982,32.095,0.000
09/11/1982,32.196,0.000
09/12/1982,32.553,0.000
09/13/1982,33.408,0.000
09/14/1982,33.480,0.000
09/15/1982,33.825,0.000
09/16/1982,34.028,0.000
09/17/1982,34.215,0.000
09/18/1982,34.272,0.000
09/19/1982,34.323,0.000
09/20/1982,34.462,0.000
09/21/1982,34.462,0.000
09/22/1982,34.462,0.000
09/23/1982,34.476,0.000
09/24/1982,34.774,0.000
09/25/1982,34.798,0.000
09/26/1982,34.798,0.000
09/27/1982,34.798,0.000
09/28/1982,34.816,0.000
09/29/1982,34.899,0.000
09/30/1982,35.127,0.000
10/01/1982,0.039,0.000
10/02/1982,0.563,0.000
10/03/1982,0.871,0.000
10/04/1982,0.871,0.000
10/05/1982,0.918,0.000
10/06/1982,2.271,0.000
10/07/1982,3.100,0.000
10/08/1982,3.192,0.000
10/09/1982,3.206,0.000
10/10/1982,3.945,0.000
10/11/1982,4.205,0.000
10/12/1982,4.403,0.000
10/13/1982,4.485,0.000
10/14/1982,4.488,0.000
10/15/1982,4.488,0.000
10/16/1982,4.488,0.000
10/17/1982,4.518,0.000
10/18/1982,4.616,0.000
10/19/1982,4.698,0.000
10/20/1982,5.489,0.226
10/21/1982,5.653,0.351
10/22/1982,5.653,0.351
10/23/1982,5.653,0.303
10/24/1982,5.653,0.173
10/25/1982,5.653,0.104
10/26/1982,5.653,0.022
10/27/1982,5.653,0.001
10/28/1982,5.717,0.000
10/29/1982,6.259,0.000
10/30/1982,6.259,0.000
10/31/1982,6.259,0.000
11/01/1982,6.260,0.000
11/02/1982,6.264,0.000
11/03/1982,6.773,0.160
11/04/1982,7.119,0.389
11/05/1982,7.280,0.492
11/06/1982,7.281,0.494
11/07/1982,7.281,0.494
11/08/1982,7.281,0.477
11/09/1982,7.281,0.477
11/10/1982,7.425,0.639
11/11/1982,7.794,0.868
11/12/1982,8.345,1.299
11/13/1982,8.483,1.418
11/14/1982,8.485,1.420
11/15/1982,8.485,1.420
11/16/1982,8.485,1.420
11/17/1982,8.485,1.420
11/18/1982,8.486,1.425
11/19/1982,8.539,1.204
11/20/1982,9.188,1.092
11/21/1982,9.912,1.084
11/22/1982,10.339,1.419
11/23/1982,10.342,1.421
11/24/1982,10.343,1.423
11/25/1982,10.343,1.423
11/26/1982,10.343,1.423
11/27/1982,10.343,1.423
11/28/1982,10.343,1.423
11/29/1982,10.343,1.423
11/30/1982,10.343,1.423
12/01/1982,10.345,1.372
12/02/1982,10.359,1.293
12/03/1982,10.418,1.186
12/04/1982,10.418,1.184
12/05/1982,10.419,1.173
12/06/1982,10.486,1.216
12/07/1982,10.487,1.218
12/08/1982,10.487,1.218
12/09/1982,10.488,1.219
12/10/1982,10.488,1.219
12/11/1982,10.489,1.219
12/12/1982,10.489,1.219
12/13/1982,10.489,1.219
12/14/1982,10.490,1.221
12/15/1982,10.549,1.262
12/16/1982,10.549,1.262
12/17/1982,10.549,1.262
12/18/1982,10.565,1.291
12/19/1982,10.660,1.353
12/20/1982,10.695,1.413
12/21/1982,10.695,1.413
12/22/1982,10.750,1.487
12/23/1982,10.926,1.549
12/24/1982,10.986,1.579
12/25/1982,11.332,1.959
12/26/1982,11.605,2.180
12/27/1982,11.613,2.194
12/28/1982,12.298,3.158
12/29/1982,12.438,3.220
12/30/1982,12.439,3.221
12/31/1982,12.452,3.231
01/01/1983,12.468,3.247
01/02/1983,12.469,3.248
01/03/1983,12.472,3.249
01/04/1983,12.517,3.271
01/05/1983,12.518,3.272
01/06/1983,12.550,3.306
01/07/1983,12.923,3.545
01/08/1983,12.923,3.545
01/09/1983,12.939,3.572
01/10/1983,13.120,3.827
01/11/1983,13.195,3.877
01/12/1983,13.197,3.880
01/13/1983,13.207,3.891
01/14/1983,13.383,4.050
01/15/1983,13.405,4.078
01/16/1983,13.409,4.088
01/17/1983,13.457,4.113
01/18/1983,13.458,4.115
01/19/1983,13.458,4.115
01/20/1983,13.458,4.115
01/21/1983,13.458,4.115
01/22/1983,13.458,4.115
01/23/1983,13.465,4.122
01/24/1983,13.472,4.128
01/25/1983,13.475,4.135
01/26/1983,13.478,4.138
01/27/1983,13.478,4.138
01/28/1983,13.480,4.141
01/29/1983,13.587,4.272
01/30/1983,13.863,4.500
01/31/1983,13.876,4.509
02/01/1983,13.876,4.509
02/02/1983,13.876,4.509
02/03/1983,13.966,4.616
02/04/1983,13.970,4.619
02/05/1983,13.987,4.639
02/06/1983,14.013,4.661
02/07/1983,14.013,4.661
02/08/1983,14.019,4.664
02/09/1983,14.078,4.691
02/10/1983,14.131,4.725
02/11/1983,14.158,4.739
02/12/1983,14.160,4.744
02/13/1983,14.160,4.744
02/14/1983,14.160,4.696
02/15/1983,14.161,4.694
02/16/1983,14.161,4.643
02/17/1983,14.163,4.646
02/18/1983,14.229,4.762
02/19/1983,14.229,4.760
02/20/1983,14.346,4.904
02/21/1983,14.346,4.904
02/22/1983,14.346,4.903
02/23/1983,14.346,4.903
02/24/1983,14.346,4.904
02/25/1983,14.348,4.907
02/26/1983,14.348,4.907
02/27/1983,14.348,4.905
02/28/1983,14.353,4.711
03/01/1983,14.395,4.757
03/02/1983,14.427,4.803
03/03/1983,14.430,4.764
03/04/1983,14.478,4.705
03/05/1983,14.528,4.645
03/06/1983,14.847,4.410
03/07/1983,15.143,4.192
03/08/1983,15.220,4.207
03/09/1983,15.255,4.229
03/10/1983,15.291,4.258
03/11/1983,15.291,4.258
03/12/1983,15.291,4.258
03/13/1983,15.291,4.097
03/14/1983,15.291,4.095
03/15/1983,15.291,4.095
03/16/1983,15.330,4.142
03/17/1983,15.375,4.169
03/18/1983,15.433,4.202
03/19/1983,15.444,4.213
03/20/1983,15.447,4.216
03/21/1983,15.448,4.217
03/22/1983,15.448,4.217
03/23/1983,15.448,4.217
03/24/1983,15.448,4.217
03/25/1983,15.448,4.217
03/26/1983,15.449,4.218
03/27/1983,15.551,4.116
03/28/1983,15.573,4.127
03/29/1983,15.574,4.129
03/30/1983,15.663,4.174
03/31/1983,15.775,4.220
04/01/1983,16.129,4.219
04/02/1983,16.246,4.228
04/03/1983,16.246,4.024
04/04/1983,16.247,3.961
04/05/1983,16.247,3.961
04/06/1983,16.309,3.865
04/07/1983,16.582,4.027
04/08/1983,16.596,4.038
04/09/1983,16.602,3.967
04/10/1983,16.699,4.000
04/11/1983,16.845,4.014
04/12/1983,16.847,3.852
04/13/1983,17.233,3.848
04/14/1983,17.523,4.315
04/15/1983,18.155,5.128
04/16/1983,18.155,5.128
04/17/1983,18.155,5.128
04/18/1983,18.155,5.128
04/19/1983,18.155,5.128
04/20/1983,18.155,5.031
04/21/1983,18.161,4.785
04/22/1983,18.161,4.400
04/23/1983,18.161,4.147
04/24/1983,18.161,3.894
04/25/1983,18.161,3.478
04/26/1983,18.164,2.302
04/27/1983,18.171,1.586
04/28/1983,18.174,1.470
04/29/1983,18.287,1.336
04/30/1983,18.287,1.293
05/01/1983,18.287,1.226
05/02/1983,18.287,1.018
05/03/1983,18.287,0.900
05/04/1983,18.291,0.680
05/05/1983,18.291,0.674
05/06/1983,18.291,0.551
05/07/1983,18.291,0.352
05/08/1983,18.291,0.338
05/09/1983,18.291,0.276
05/10/1983,18.291,0.139
05/11/1983,18.291,0.008
05/12/1983,18.295,0.000
05/13/1983,18.672,0.000
05/14/1983,18.672,0.000
05/15/1983,18.672,0.000
05/16/1983,18.672,0.000
05/17/1983,18.672,0.000
05/18/1983,18.672,0.000
05/19/1983,18.815,0.000
05/20/1983,18.919,0.000
05/21/1983,19.117,0.000
05/22/1983,19.159,0.000
05/23/1983,19.288,0.000
05/24/1983,19.320,0.000
05/25/1983,19.321,0.000
05/26/1983,19.321,0.000
05/27/1983,19.321,0.000
05/28/1983,19.384,0.000
05/29/1983,19.856,0.000
05/30/1983,20.142,0.000
05/31/1983,20.423,0.000
06/01/1983,20.423,0.000
06/02/1983,20.424,0.000
06/03/1983,20.472,0.000
06/04/1983,20.711,0.000
06/05/1983,20.869,0.000
06/06/1983,20.961,0.000
06/07/1983,20.961,0.000
06/08/1983,20.961,0.000
06/09/1983,20.978,0.000
06/10/1983,20.986,0.000
06/11/1983,21.047,0.000
06/12/1983,21.065,0.000
06/13/1983,21.144,0.000
06/14/1983,21.262,0.000
06/15/1983,21.587,0.000
06/16/1983,21.903,0.000
06/17/1983,21.904,0.000
06/18/1983,21.904,0.000
06/19/1983,21.904,0.000
06/20/1983,21.904,0.000
06/21/1983,21.908,0.000
06/22/1983,22.111,0.000
06/23/1983,22.111,0.000
06/24/1983,22.111,0.000
06/25/1983,22.311,0.000
06/26/1983,22.344,0.000
06/27/1983,22.457,0.000
06/28/1983,22.457,0.000
06/29/1983,22.461,0.000
06/30/1983,22.840,0.000
07/01/1983,23.288,0.000
07/02/1983,23.320,0.000
07/03/1983,24.362,0.000
07/04/1983,25.647,0.000
07/05/1983,25.699,0.000
07/06/1983,25.699,0.000
07/07/1983,25.699,0.000
07/08/1983,25.699,0.000
07/09/1983,25.699,0.000
07/10/1983,25.699,0.000
07/11/1983,25.699,0.000
07/12/1983,25.699,0.000
07/13/1983,25.699,0.000
07/14/1983,25.699,0.000
07/15/1983,25.699,0.000
07/16/1983,25.738,0.000
07/17/1983,25.890,0.000
07/18/1983,25.903,0.000
07/19/1983,25.906,0.000
07/20/1983,25.957,0.000
07/21/1983,26.260,0.000
07/22/1983,26.309,0.000
07/23/1983,26.322,0.000
07/24/1983,26.322,0.000
07/25/1983,26.322,0.000
07/26/1983,26.322,0.000
07/27/1983,26.322,0.000
07/28/1983,26.322,0.000
07/29/1983,26.357,0.000
07/30/1983,26.365,0.000
07/31/1983,26.641,0.000
08/01/1983,26.677,0.000
08/02/1983,26.681,0.000
08/03/1983,27.287,0.000
08/04/1983,27.287,0.000
08/05/1983,27.289,0.000
08/06/1983,27.304,0.000
08/07/1983,27.304,0.000
08/08/1983,27.325,0.000
08/09/1983,27.343,0.000
08/10/1983,28.640,0.000
08/11/1983,28.756,0.000
08/12/1983,28.758,0.000
08/13/1983,28.814,0.000
08/14/1983,28.817,0.000
08/15/1983,28.817,0.000
08/16/1983,28.817,0.000
08/17/1983,28.941,0.000
08/18/1983,28.941,0.000
08/19/1983,29.413,0.000
08/20/1983,29.413,0.000
08/21/1983,29.521,0.000
08/22/1983,29.608,0.000
08/23/1983,29.619,0.000
08/24/1983,30.374,0.000
08/25/1983,30.881,0.000
08/26/1983,31.064,0.000
08/27/1983,31.068,0.000
08/28/1983,31.178,0.000
08/29/1983,31.249,0.000
08/30/1983,31.289,0.000
08/31/1983,31.289,0.000
09/01/1983,31.289,0.000
09/02/1983,31.289,0.000
09/03/1983,31.314,0.000
09/04/1983,31.379,0.000
09/05/1983,31.700,0.000
09/06/1983,31.904,0.000
09/07/1983,32.007,0.000
09/08/1983,32.011,0.000
09/09/1983,32.236,0.000
09/10/1983,33.202,0.000
09/11/1983,33.229,0.000
09/12/1983,33.276,0.000
09/13/1983,33.278,0.000
09/14/1983,33.282,0.000
09/15/1983,33.469,0.000
09/16/1983,34.476,0.000
09/17/1983,34.489,0.000
09/18/1983,34.540,0.000
09/19/1983,34.558,0.000
09/20/1983,34.686,0.000
09/21/1983,34.756,0.000
09/22/1983,34.831,0.000
09/23/1983,34.838,0.000
09/24/1983,34.838,0.000
09/25/1983,34.838,0.000
09/26/1983,34.838,0.000
09/27/1983,34.838,0.000
09/28/1983,34.854,0.000
09/29/1983,35.378,0.000
09/30/1983,35.987,0.000
10/01/1983,0.197,0.000
10/02/1983,0.371,0.000
10/03/1983,0.789,0.000
10/04/1983,0.955,0.000
10/05/1983,1.097,0.000
10/06/1983,1.114,0.000
10/07/1983,1.251,0.000
10/08/1983,1.597,0.002
10/09/1983,1.597,0.000
10/10/1983,1.620,0.000
10/11/1983,2.613,0.000
10/12/1983,2.839,0.000
10/13/1983,2.867,0.003
10/14/1983,3.101,0.001
10/15/1983,3.137,0.000
10/16/1983,3.885,0.000
10/17/1983,3.886,0.000
10/18/1983,3.886,0.000
10/19/1983,3.900,0.000
10/20/1983,3.903,0.000
10/21/1983,3.903,0.000
10/22/1983,3.903,0.000
10/23/1983,3.903,0.000
10/24/1983,3.903,0.000
10/25/1983,3.939,0.000
10/26/1983,3.939,0.000
10/27/1983,3.939,0.000
10/28/1983,3.939,0.000
10/29/1983,3.939,0.000
10/30/1983,3.939,0.000
10/31/1983,3.939,0.000
11/01/1983,3.939,0.000
11/02/1983,3.947,0.000
11/03/1983,3.947,0.000
11/04/1983,3.947,0.000
11/05/1983,3.947,0.000
11/06/1983,3.947,0.000
11/07/1983,3.947,0.000
11/08/1983,3.949,0.000
11/09/1983,4.190,0.032
11/10/1983,4.423,0.208
11/11/1983,4.446,0.227
11/12/1983,4.446,0.227
11/13/1983,4.483,0.247
11/14/1983,4.528,0.275
11/15/1983,4.547,0.288
11/16/1983,4.560,0.299
11/17/1983,4.577,0.314
11/18/1983,4.667,0.362
11/19/1983,4.667,0.357
11/20/1983,5.627,0.540
11/21/1983,5.811,0.613
11/22/1983,5.840,0.655
11/23/1983,6.432,1.006
11/24/1983,7.136,1.610
11/25/1983,7.802,2.037
11/26/1983,7.803,2.037
11/27/1983,7.804,2.041
11/28/1983,8.028,2.310
11/29/1983,8.600,2.928
11/30/1983,8.690,2.994
12/01/1983,8.692,2.997
12/02/1983,8.692,2.997
12/03/1983,8.692,2.997
12/04/1983,8.692,2.997
12/05/1983,8.692,2.997
12/06/1983,8.708,3.017
12/07/1983,8.712,3.026
12/08/1983,8.712,3.026
12/09/1983,8.714,3.027
12/10/1983,8.784,3.137
12/11/1983,9.150,3.589
12/12/1983,9.251,3.659
12/13/1983,9.390,3.751
12/14/1983,9.568,3.864
12/15/1983,10.026,4.350
12/16/1983,10.326,4.507
12/17/1983,10.330,4.514
12/18/1983,10.330,4.515
12/19/1983,10.331,4.516
12/20/1983,10.335,4.523
12/21/1983,10.495,4.653
12/22/1983,10.524,4.668
12/23/1983,10.524,4.668
12/24/1983,10.531,4.681
12/25/1983,10.538,4.691
12/26/1983,10.558,4.720
12/27/1983,10.563,4.725
12/28/1983,10.563,4.725
12/29/1983,10.567,4.730
12/30/1983,10.567,4.730
12/31/1983,10.567,4.730
01/01/1984,10.567,4.730
01/02/1984,10.574,4.740
01/03/1984,10.601,4.779
01/04/1984,10.604,4.755
01/05/1984,10.632,4.786
01/06/1984,10.632,4.776
01/07/1984,10.641,4.788
01/08/1984,10.684,4.827
01/09/1984,10.686,4.828
01/10/1984,10.706,4.847
01/11/1984,10.721,4.859
01/12/1984,10.791,4.942
01/13/1984,10.820,4.965
01/14/1984,10.840,4.989
01/15/1984,10.850,5.008
01/16/1984,10.947,5.117
01/17/1984,10.950,5.120
01/18/1984,10.950,5.120
01/19/1984,10.950,5.120
01/20/1984,10.956,5.126
01/21/1984,10.956,5.126
01/22/1984,10.963,5.132
01/23/1984,10.973,5.145
01/24/1984,10.981,5.153
01/25/1984,10.983,5.156
01/26/1984,10.986,5.160
01/27/1984,11.065,5.256
01/28/1984,11.155,5.339
01/29/1984,11.158,5.341
01/30/1984,11.189,5.372
01/31/1984,11.189,5.372
02/01/1984,11.197,5.376
02/02/1984,11.201,5.380
02/03/1984,11.342,5.504
02/04/1984,11.399,5.559
02/05/1984,11.434,5.593
02/06/1984,11.437,5.596
02/07/1984,11.437,5.596
02/08/1984,11.437,5.596
02/09/1984,11.437,5.596
02/10/1984,11.437,5.596
02/11/1984,11.439,5.594
02/12/1984,11.689,5.668
02/13/1984,12.127,5.840
02/14/1984,12.127,5.770
02/15/1984,12.127,5.749
02/16/1984,12.127,5.549
02/17/1984,12.127,5.480
02/18/1984,12.127,5.447
02/19/1984,12.145,5.478
02/20/1984,12.145,5.478
02/21/1984,12.145,5.478
02/22/1984,12.145,5.376
02/23/1984,12.145,5.317
02/24/1984,12.151,5.325
02/25/1984,12.151,5.325
02/26/1984,12.151,5.325
02/27/1984,12.151,5.325
02/28/1984,12.151,5.325
02/29/1984,12.151,5.325
03/01/1984,12.151,5.325
03/02/1984,12.151,5.325
03/03/1984,12.151,5.325
03/04/1984,12.160,5.337
03/05/1984,12.377,5.519
03/06/1984,12.393,5.539
03/07/1984,12.393,5.539
03/08/1984,12.393,5.539
03/09/1984,12.393,5.539
03/10/1984,12.393,5.539
03/11/1984,12.395,5.542
03/12/1984,12.401,5.555
03/13/1984,12.533,5.669
03/14/1984,12.545,5.679
03/15/1984,12.726,5.778
03/16/1984,12.726,5.779
03/17/1984,12.726,5.779
03/18/1984,12.726,5.779
03/19/1984,12.726,5.779
03/20/1984,12.738,5.796
03/21/1984,12.947,5.996
03/22/1984,13.031,6.076
03/23/1984,13.032,6.077
03/24/1984,13.032,6.059
03/25/1984,13.032,6.036
03/26/1984,13.032,5.975
03/27/1984,13.032,5.947
03/28/1984,13.032,5.945
03/29/1984,13.032,5.945
03/30/1984,13.032,5.945
03/31/1984,13.032,5.945
04/01/1984,13.032,5.945
04/02/1984,13.032,5.932
04/03/1984,13.032,5.812
04/04/1984,13.032,5.745
04/05/1984,13.032,5.689
04/06/1984,13.032,5.435
04/07/1984,13.032,5.317
04/08/1984,13.032,4.987
04/09/1984,13.032,4.487
04/10/1984,13.032,4.259
04/11/1984,13.032,3.732
04/12/1984,13.039,3.436
04/13/1984,13.290,3.205
04/14/1984,13.411,3.126
04/15/1984,13.411,2.989
04/16/1984,13.411,2.681
04/17/1984,13.411,2.492
04/18/1984,13.411,2.318
04/19/1984,13.411,2.127
04/20/1984,13.411,1.893
04/21/1984,13.411,1.388
04/22/1984,13.411,1.179
04/23/1984,13.411,0.979
04/24/1984,13.413,0.671
04/25/1984,13.431,0.384
04/26/1984,13.817,0.160
04/27/1984,14.697,0.017
04/28/1984,15.067,0.006
04/29/1984,15.074,0.007
04/30/1984,15.608,0.331
05/01/1984,15.755,0.446
05/02/1984,15.755,0.446
05/03/1984,15.755,0.312
05/04/1984,15.755,0.086
05/05/1984,15.791,0.004
05/06/1984,15.896,0.001
05/07/1984,16.196,0.000
05/08/1984,16.642,0.000
05/09/1984,16.745,0.039
05/10/1984,16.793,0.000
05/11/1984,16.943,0.000
05/12/1984,16.999,0.000
05/13/1984,17.036,0.000
05/14/1984,17.061,0.000
05/15/1984,17.061,0.000
05/16/1984,17.091,0.000
05/17/1984,17.103,0.000
05/18/1984,17.103,0.000
05/19/1984,17.103,0.000
05/20/1984,17.121,0.000
05/21/1984,17.286,0.000
05/22/1984,17.808,0.000
05/23/1984,17.817,0.000
05/24/1984,17.883,0.000
05/25/1984,17.929,0.000
05/26/1984,17.963,0.000
05/27/1984,17.963,0.000
05/28/1984,17.963,0.000
05/29/1984,17.963,0.000
05/30/1984,17.963,0.000
05/31/1984,17.963,0.000
06/01/1984,18.290,0.000
06/02/1984,18.630,0.000
06/03/1984,18.630,0.000
06/04/1984,18.793,0.000
06/05/1984,19.485,0.000
06/06/1984,19.878,0.000
06/07/1984,20.462,0.000
06/08/1984,21.078,0.000
06/09/1984,21.491,0.000
06/10/1984,22.041,0.000
06/11/1984,22.385,0.000
06/12/1984,22.887,0.000
06/13/1984,23.059,0.000
06/14/1984,23.059,0.000
06/15/1984,23.107,0.000
06/16/1984,23.177,0.000
06/17/1984,23.177,0.000
06/18/1984,23.177,0.000
06/19/1984,23.177,0.000
06/20/1984,23.177,0.000
06/21/1984,23.362,0.000
06/22/1984,23.818,0.000
06/23/1984,23.818,0.000
06/24/1984,23.820,0.000
06/25/1984,23.882,0.000
06/26/1984,24.422,0.000
06/27/1984,24.758,0.000
06/28/1984,24.758,0.000
06/29/1984,24.758,0.000
06/30/1984,24.758,0.000
07/01/1984,24.758,0.000
07/02/1984,24.884,0.000
07/03/1984,25.403,0.000